NIMBUS 2 DEB, 32475

Orbit data source: Space-Track

NIMBUS 2 DEB, 32475 is space debris in SSO originally from a launch on Sun, 15 May 1966 UTC launched from the Air Force Western Test Range (AFWTR). Debris objects in space refer to the collection of defunct objects orbiting the Earth. Examples of debris include non-operational satellites, rocket bodies, and fragments generated from explosions, collisions, or faulty payload assembly.

Loading next visibility...
Identifier
32475, 1966-040AS
Orbit
SSO
Country
Flag of USUS
Related business
Manufacturer
Unknown
Mission
Spacecraft
Bus & Motor
Unknown
Mass
Unknown
Launch date (UTC)
1966-05-15 (60 years ago)
Launch vehicle
Unknown
Launch site
Air Force Western Test Range (AFWTR)
Object type
Payload
Rocket body
Debris
Shape & HBR
Unknown shape, 0.1 m
Radar Cross Section
Small (<0.1 m²)

Expand to show TLE details & history
Last TLE update: 1 week ago

TLE from 1 week ago
0 NIMBUS 2 DEB
1 32475U 66040AS  26120.01827983  .00003082  00000-0  42207-2 0  9996
2 32475 100.5282 145.6389 0058963 208.9756 180.0062 13.58946340921883
Epoch: 2026-04-30T00:26Z
TLE epoch observation values (Epoch: 2026-04-30T00:26:19.377Z)
Latitude
28.49343°
Longitude
-84.67282°
Altitude
1,086.654 km
Speed
7.29 km/s
True Right ascension
09h 19m 30s
True Declination
28° 21' 21"
Sunlit
Object was in daylight at epoch
Visualization orbit readout
Latitude
Unknown
Longitude
Unknown
Altitude
Unknown
Speed
Unknown
Apparent Right ascension
Unknown
Apparent Declination
Unknown
Sunlit
N/A
Visualization observer readout
Local Sidereal Time
20:20:59
Azimuth
Unknown
Elevation
Unknown
Doppler factor
Unknown
Orbital elements
Apogee altitude
1,080.579 km
Perigee altitude
993.137 km
Semi-major axis
7,414.995 km
Eccentricity
0.0059
Inclination
100.5282°
RAAN
145.6389°
Arg. of periapsis
208.9756°
True anomaly
180.00613°
Mean anomaly
180.0062°
Eccentric anomaly
180.00616°
Mean motion
3.3992 °/min
Orbital period
105.91 mins
BSTAR
0.0042207
Loading maneuver chart data...
Computing Atmospheric mass density...
Loading historical data...
Loading historical data...
Loading historical data...
Loading historical data...
Loading historical data...
Loading historical data...
Loading historical data...

Documentation

Showing up to 5 results
|